This is the latest recevied weather packets stored in our database for station/object AE5HO. If no packets are shown the sender has not sent any weather packets the latest 10 day(s).
| Time | Temp. | Humidity | Pressure | Rain* | Wind** | Luminosity | Snow |
|---|---|---|---|---|---|---|---|
| 1778163560 | 15.56° C | 78% | 1020.7 hPa | 0 mm | - | 122 W/m² | - |
| 1778163256 | 15.56° C | 78% | 1020.6 hPa | 0 mm | - | 78 W/m² | - |
| 1778162953 | 15.56° C | 78% | 1020.7 hPa | 0 mm | - | 65 W/m² | - |
| 1778162649 | 15° C | 78% | 1020.7 hPa | 0 mm | - | 73 W/m² | - |
| 1778162347 | 15° C | 81% | 1020.7 hPa | 0 mm | - | 59 W/m² | - |
| 1778162043 | 15° C | 82% | 1020.8 hPa | 0 mm | - | 64 W/m² | - |
| 1778161741 | 14.44° C | 82% | 1020.7 hPa | 0 mm | - | 55 W/m² | - |
| 1778161437 | 14.44° C | 83% | 1021 hPa | 0 mm | - | 78 W/m² | - |
| 1778161133 | 13.89° C | 84% | 1021 hPa | 0 mm | - | 67 W/m² | - |
| 1778160828 | 13.33° C | 84% | 1020.8 hPa | 0 mm | - | 57 W/m² | - |
| 1778160528 | 13.33° C | 84% | 1020.9 hPa | 0 mm | - | 60 W/m² | - |
| 1778160224 | 13.33° C | 85% | 1020.9 hPa | 0 mm | - | 59 W/m² | - |
| 1778159921 | 13.33° C | 86% | 1021 hPa | 0 mm | - | 64 W/m² | - |
| 1778159617 | 12.78° C | 86% | 1020.9 hPa | 0 mm | - | 62 W/m² | - |
| 1778159314 | 12.78° C | 87% | 1020.9 hPa | 0 mm | - | 54 W/m² | - |
| 1778159011 | 12.78° C | 87% | 1021 hPa | 0 mm | - | 49 W/m² | - |
| 1778158711 | 12.22° C | 88% | 1020.7 hPa | 0 mm | - | 45 W/m² | - |
| 1778158408 | 12.22° C | 88% | 1020.9 hPa | 0 mm | - | 38 W/m² | - |
| 1778158105 | 12.22° C | 89% | 1020.6 hPa | 0 mm | - | 35 W/m² | - |
| 1778157801 | 12.22° C | 89% | 1020.6 hPa | 0 mm | - | 34 W/m² | - |
| 1778157500 | 11.67° C | 89% | 1020.7 hPa | 0 mm | - | 29 W/m² | - |
| 1778157197 | 11.67° C | 91% | 1020.5 hPa | 0 mm | - | 33 W/m² | - |
| 1778156892 | 11.67° C | 92% | 1020.5 hPa | 0 mm | - | 31 W/m² | - |
| 1778156588 | 11.67° C | 92% | 1020.6 hPa | 0 mm | - | 23 W/m² | - |
| 1778156284 | 11.11° C | 92% | 1020.6 hPa | 0 mm | - | 17 W/m² | - |
* Rain latest hour (hover to see other rain measurements)
** Current wind speed in m/s (hover to see current wind gust speed)